Skip Page Navigation
NASA JPL Caltech
NASA Logo - Jet Propulsion Laboratory + View the NASA Portal
+ Center for Near-Earth Object Studies
JPL Home Earth Solar System Stars & Galaxies Technology
JPL Solar System Dynamics
BODIES ORBITS EPHEMERIDES TOOLS PHYSICAL DATA DISCOVERY FAQ SITE MAP
JPL Small-Body Database Browser
Search: [ help ]  
193503 (2000 YC27)
Classification: Main-belt Asteroid          SPK-ID: 2193503
Ephemeris | Orbit Diagram | Orbital Elements | Mission Design | Physical Parameters | Discovery Circumstances ]

[ show orbit diagram ]
Orbital Elements at Epoch 2459000.5 (2020-May-31.0) TDB
Reference: JPL 16 (heliocentric ecliptic J2000)
 Element Value Uncertainty (1-sigma)   Units 
e .07382517141669934 4.2134e-08  
a 2.644074915781997 2.3546e-08 au
q 2.448875631885796 1.1474e-07 au
i 21.41952405516926 5.3611e-06 deg
node 215.1548550879146 1.2146e-05 deg
peri 251.5731462261951 5.5969e-05 deg
M 203.6357630918943 6.1667e-05 deg
tp 2459682.593624027852
(2022-Apr-13.09362403)
0.00027434 TDB
period 1570.395568101274
4.30
2.0977e-05
5.743e-08
d
yr
n .2292416046711511 3.0621e-09 deg/d
Q 2.839274199678198 2.5284e-08 au
  Orbit Determination Parameters
   # obs. used (total)      360  
   data-arc span      7605 days (20.82 yr)  
   first obs. used      1999-10-03  
   last obs. used      2020-07-29  
   planetary ephem.      DE431  
   SB-pert. ephem.      SB431-N16  
   condition code      0  
   norm. resid. RMS      .55158  
   source      ORB  
   producer      Otto Matic  
   solution date      2020-Aug-25 14:15:33  

Additional Information
 Earth MOID = 1.53237 au 
 Jupiter MOID = 2.37652 au 
 T_jup = 3.292 
[ show covariance matrix ]

Ephemeris | Orbit Diagram | Orbital Elements | Mission Design | Physical Parameters | Discovery Circumstances ]

Physical Parameter Table
Parameter Symbol Value Units Sigma Reference Notes
absolute magnitude H 15.5   n/a MPO433279  

193503 (2000 YC27)          Discovered 2000-Dec-26 by NEAT at Haleakala
Reference: 20081113/Numbers.arcLast Updated: 2008-11-17

Alternate Designations
 2000 YC27 = 1999 TU300 = 2003 SE85 
Ephemeris | Orbit Diagram | Orbital Elements | Mission Design | Physical Parameters | Discovery Circumstances ]
ABOUT SSD CREDITS/AWARDS PRIVACY/COPYRIGHT GLOSSARY LINKS
FirstGov 2020-Oct-21 05:39 UT
(server date/time)  
NASA Home Page
Site Manager:   Ryan S. Park
Webmaster  Alan B. Chamberlin